Location: Southlake
(32.9412°N, 97.1342°W)
Time: 07:59:43
(UTC+00:00)

Cosmos 1602 - Pass Details

Date: 03 December 2021
Orbit: 512 x 530 km, 82.5° (Epoch: 26 January)

Event Time Altitude Azimuth Distance (km) Brightness Sun altitude
Rises 23:50:05 0° 1° (N) 2,648 7.1 -6.3°
Reaches altitude 10° 23:52:18 10° 9° (N) 1,759 6.1 -6.7°
Maximum altitude 23:55:59 42° 81° (E) 751 4.1 -7.4°
Drops below altitude 10° 23:59:40 10° 154° (SSE) 1,759 6.4 -8.1°
Sets 00:01:53 0° 161° (SSE) 2,646 7.3 -8.6°
